C/2018 A6 ( Gibbs )

Japanese version
Home page
Updated on February 3, 2018

---------------------------------------------------------------------

* Profile

Discovery Date January 15, 2018
Magnitude 19.3 mag
Discoverer A. R. Gibbs (Mount Lemmon)

* Pictures

* Orbital Elements

T 2019 May 24.53430 TT                                  MPCW
q   2.8592200            (2000.0)            P               Q
                   Peri.  262.83580     -0.17743800     +0.92665996
                   Node   340.31423     +0.27290042     -0.27719412
e   1.0            Incl.   79.65602     -0.94553747     -0.25389907
From 67 observations 2018 Jan. 15-23.

* Magnitudes Graph

        m1 = 8.5 + 5 log d + 10.0 log r

---------------------------------------------------------------------

The orbital elements are published on M.P.E.C. 2018-B155.
The magnitudes graphs are made with Comet for Windows.

---------------------------------------------------------------------

Copyright(C) Seiichi Yoshida (comet@aerith.net). All rights reserved.